Hourly Data Report for September 19, 2010

PETERBOROUGH AWOS
ONTARIO

44°14'00.000" N
78°22'00.000" W
191.40 m
6166420

Download Data

Hourly Data (September 2010)
Hourly Data Report for September 19, 2010
TIME
LST
Temp Definition
°C
Dew Point Definition
°C
Rel Hum Definition
%
Precip. Amount Definition
mm

Wind Dir Definition
10's deg

Wind Spd Definition
km/h
Visibility Definition
km
Stn Press Definition
kPa
Hmdx Definition


Wind Chill Definition


Weather Definition


00:00 12.4 11.0 91   LegendMM LegendMM 15.0 99.77      
01:00 11.9 10.5 91   LegendMM LegendMM 15.0 99.80      
02:00 10.2 10.1 99   LegendMM LegendMM 15.0 99.82      
03:00 11.1 10.4 95   LegendMM LegendMM 15.0 99.82      
04:00 10.9 9.7 92   LegendMM LegendMM 15.0 99.85      
05:00 9.1 8.4 95   LegendMM LegendMM 15.0 99.89      
06:00 7.4 7.4 100   LegendMM LegendMM 15.0 99.89      
07:00 6.2 6.2 100   LegendMM LegendMM 15.0 99.95      
08:00 11.1 9.9 92   LegendMM LegendMM 15.0 99.91      
09:00 13.3 9.8 79   LegendMM LegendMM 15.0 99.95      
10:00 15.3 8.7 65   LegendMM LegendMM 15.0 99.93      
11:00 17.1 8.9 58   LegendMM LegendMM 15.0 99.88      
12:00 17.4 8.8 57   LegendMM LegendMM 15.0 99.84      
13:00 18.4 6.4 45   LegendMM LegendMM 15.0 99.79      
14:00 17.8 3.7 39   LegendMM LegendMM 15.0 99.78      
15:00 18.6 4.4 39   LegendMM LegendMM 15.0 99.76      
16:00 17.8 2.0 35   LegendMM LegendMM 15.0 99.73      
17:00 16.8 1.9 37   LegendMM LegendMM 15.0 99.74      
18:00 14.8 3.5 47   LegendMM LegendMM 15.0 99.73      
19:00 12.6 5.3 61   LegendMM LegendMM 15.0 99.79      
20:00 11.4 6.8 73   LegendMM LegendMM 15.0 99.82      
21:00 10.4 6.7 78   LegendMM LegendMM 15.0 99.82      
22:00 9.7 6.4 80   LegendMM LegendMM 15.0 99.80      
23:00 7.9 6.2 89   LegendMM LegendMM 15.0 99.85      

Notes on Data Quality.

Legend

  • E = Estimated
  • M = Missing
  • NA = Not Available*
  • [empty] = Indicates an unobserved value
Date modified: